User: anonymous   Login
Location: Unspecified
(0.0000°N, 0.0000°E)
Time: 00:52:46
(UTC+00:00)
Language:

TBA - TO BE ASSIGNED - Orbit

View from above orbital plane
View from above orbital plane
View from above satellite
View from above satellite

Ground track
Ground track

The orbit is defined by the following mean orbital elements,

1 67957U          26145.28027749 +.00000000 +00000-0 +39800-3 0 00007
2 67957  43.0038 118.2297 0001233 279.7131  80.3581 15.27595120    05
Epoch (UTC): 25 May 2026 06:43:35
Eccentricity: 0.0001233
inclination: 43.0038°
perigee height: 482 km
apogee height: 484 km
right ascension of ascending node: 118.2297°
argument of perigee: 279.7131°
revolutions per day: 15.27595120
mean anomaly at epoch: 80.3581°

The dashed part of the orbit path shows where the satellite is in the earth's shadow,  

DLR